Weather History for Minot, ND

Change the Weather History Date:

Friday, October 1, 2010

  Actual Average Record
Temperature  
Mean Temperature 50 °F 51 °F  
Max Temperature 63 °F 63 °F 92 °F (1992)
Min Temperature 36 °F 40 °F 14 °F (1936)
Degree Days  
Heating Degree Days 15 14  
Month to date heating degree days 15 14  
Since 1 July heating degree days 255 334  
Cooling Degree Days 0 0  
Month to date cooling degree days 0 0  
Year to date cooling degree days 463 444  
Growing Degree Days 3 (Base 50)    
Moisture  
Dew Point 39 °F    
Average Humidity 66    
Maximum Humidity 92    
Minimum Humidity 39    
Precipitation  
Precipitation 0.00 in 0.04 in 0.80 in (2009)
Month to date precipitation 0.00 0.04  
Year to date precipitation 20.15 14.94  
Sea Level Pressure  
Sea Level Pressure 30.31 in    
Wind  
Wind Speed 8 mph (North)    
Max Wind Speed 17 mph    
Max Gust Speed 24 mph    
Visibility 10 miles    
Events      
T = Trace of Precipitation, MM = Missing Value Source: NWS Daily Summary

Daily Weather History Graph

Daily Weather History Graph

Search for Another Location

Airport:

Trip Planner

Search our weather history database for the weather conditions in past years. The results will help you decide how hot, cold, wet, or windy it might be!

Date:

Astronomy

Oct. 01, 2010 Rise Set
Actual Time 7:44 AM CDT 7:24 PM CDT
Civil Twilight 7:13 AM CDT 7:55 PM CDT
Nautical Twilight 6:37 AM CDT 8:31 PM CDT
Astronomical Twilight 6:00 AM CDT 9:08 PM CDT
Moon No Moon Rise 4:02 PM CDT (10/1)
Length of Visible Light 12h 41m
Length of Day
11h 39m
Last Quarter, 44% of the Moon is Illuminated
Oct 1
Last Quarter
Oct 7
New
Oct 14
First Quarter
Oct 22
Full
Oct 30
Last Quarter

Hourly Weather History & Observations

Time (CDT) Temp. Windchill Dew Point Humidity Pressure Visibility Wind Dir Wind Speed Gust Speed Precip Events Conditions
12:54 AM 59.0 °F - 39.0 °F 48% 30.04 in 10.0 mi SSW 12.7 mph - N/A   Clear
1:54 AM 60.1 °F - 39.9 °F 47% 30.02 in 10.0 mi SSW 13.8 mph - N/A   Partly Cloudy
2:54 AM 57.2 °F - 41.0 °F 55% 30.03 in 10.0 mi WSW 8.1 mph 18.4 mph N/A   Clear
3:54 AM 54.0 °F - 42.1 °F 64% 30.08 in 10.0 mi North 3.5 mph - N/A   Mostly Cloudy
4:54 AM 48.0 °F - 41.0 °F 77% 30.12 in 10.0 mi NNW 5.8 mph - N/A   Mostly Cloudy
5:54 AM 48.9 °F - 44.1 °F 83% 30.17 in 10.0 mi NNE 12.7 mph - N/A   Clear
6:54 AM 46.0 °F 43.1 °F 43.0 °F 89% 30.21 in 10.0 mi North 5.8 mph - N/A   Clear
7:54 AM 45.0 °F 40.6 °F 42.1 °F 90% 30.27 in 10.0 mi NNW 8.1 mph - N/A   Clear
8:54 AM 48.0 °F - 44.1 °F 86% 30.31 in 10.0 mi NNW 6.9 mph - N/A   Clear
9:54 AM 51.1 °F - 44.1 °F 77% 30.33 in 10.0 mi NNW 9.2 mph - N/A   Clear
10:54 AM 55.0 °F - 44.1 °F 67% 30.37 in 10.0 mi North 10.4 mph - N/A   Partly Cloudy
11:54 AM 57.0 °F - 41.0 °F 55% 30.38 in 10.0 mi NNE 8.1 mph - N/A   Clear
12:54 PM 60.1 °F - 39.9 °F 47% 30.39 in 10.0 mi NE 10.4 mph - N/A   Clear
1:54 PM 61.0 °F - 39.9 °F 46% 30.39 in 10.0 mi North 12.7 mph - N/A   Scattered Clouds
2:54 PM 63.0 °F - 37.9 °F 40% 30.39 in 10.0 mi North 12.7 mph 21.9 mph N/A   Clear
3:54 PM 61.0 °F - 36.0 °F 39% 30.40 in 10.0 mi North 11.5 mph 20.7 mph N/A   Partly Cloudy
4:54 PM 61.0 °F - 37.0 °F 41% 30.41 in 10.0 mi North 13.8 mph 19.6 mph N/A   Scattered Clouds
5:54 PM 60.1 °F - 35.1 °F 39% 30.42 in 10.0 mi North 12.7 mph - N/A   Partly Cloudy
6:54 PM 55.9 °F - 36.0 °F 47% 30.44 in 10.0 mi North 8.1 mph - N/A   Clear
7:54 PM 48.0 °F - 35.1 °F 61% 30.45 in 10.0 mi North 4.6 mph - N/A   Clear
8:54 PM 44.1 °F 42.5 °F 35.1 °F 71% 30.47 in 10.0 mi NNW 3.5 mph - N/A   Clear
9:54 PM 43.0 °F - 34.0 °F 71% 30.48 in 10.0 mi Calm Calm - N/A   Clear
10:54 PM 43.0 °F - 34.0 °F 71% 30.48 in 10.0 mi Calm Calm - N/A   Clear
11:54 PM 39.9 °F 37.8 °F 33.1 °F 77% 30.49 in 10.0 mi South 3.5 mph - N/A   Clear